Cleveland, OH

9:35 PM EDT on July 24, 2016 (GMT -0400)
Burke Lakefront

Weather History for KBKL - January, 2003

Change the Weather History Date:

Thursday, January 2, 2003

  Actual Average Record
Temperature  
Mean Temperature 28 °F -  
Max Temperature 30 °F 36 °F 63 °F (2005)
Min Temperature 26 °F 25 °F 8 °F (2001)
Degree Days  
Heating Degree Days 37    
Moisture  
Dew Point 25 °F    
Average Humidity 89    
Maximum Humidity 96    
Minimum Humidity 80    
Precipitation  
Precipitation 0.00 in - - ()
Sea Level Pressure  
Sea Level Pressure 29.94 in    
Wind  
Wind Speed 15 mph (NE)    
Max Wind Speed 25 mph    
Max Gust Speed 32 mph    
Visibility 6 miles    
Events Fog , Snow    
Averages and records for this station are not official NWS values.
T = Trace of Precipitation, MM = Missing Value Source: NWS Daily Summary

Daily Weather History Graph

Daily Weather History Graph

Search for Another Location

Airport or City:

Trip Planner

Search our weather history database for the weather conditions in past years. The results will help you decide how hot, cold, wet, or windy it might be!

Date:

Astronomy

Jan. 02, 2003 Rise Set
Actual Time 7:53 AM EST 5:08 PM EST
Civil Twilight 7:22 AM EST 5:39 PM EST
Nautical Twilight 6:47 AM EST 6:14 PM EST
Astronomical Twilight 6:13 AM EST 6:47 PM EST
Moon 7:56 AM EST (1/2) 4:53 PM EST (1/2)
Length of Visible Light 10h 17m
Length of Day
9h 14m
Waning Crescent, 0% of the Moon is Illuminated
Jan 2
Waning Crescent
Jan 2
New
Jan 10
First Quarter
Jan 18
Full
Jan 25
Last Quarter

Hourly Weather History & Observations

Time (EST) Temp. Windchill Dew Point Humidity Pressure Visibility Wind Dir Wind Speed Gust Speed Precip Events Conditions
12:53 AM 30.9 °F 17.8 °F 28.0 °F 89% 29.97 in 10.0 mi NE 23.0 mph 32.2 mph N/A   Overcast
1:53 AM 30.0 °F 16.3 °F 26.1 °F 85% 29.98 in 10.0 mi NE 24.2 mph 31.1 mph N/A   Overcast
2:53 AM 28.9 °F 14.5 °F 25.0 °F 85% 29.99 in 10.0 mi NE 25.3 mph 29.9 mph N/A   Overcast
3:53 AM 28.9 °F 15.4 °F 24.1 °F 82% 30.00 in 10.0 mi NE 21.9 mph 28.8 mph N/A   Overcast
4:53 AM 28.9 °F 16.1 °F 24.1 °F 82% 29.99 in 10.0 mi NE 19.6 mph - N/A   Overcast
5:53 AM 28.0 °F 16.1 °F 24.1 °F 85% 30.01 in 8.0 mi ENE 16.1 mph - N/A   Overcast
6:53 AM 28.0 °F 16.1 °F 24.1 °F 85% 30.02 in 10.0 mi NE 16.1 mph - N/A   Overcast
7:40 AM 28.4 °F 18.5 °F 24.8 °F 86% 30.01 in 10.0 mi ENE 11.5 mph - N/A   Overcast
7:53 AM 28.0 °F 16.1 °F 24.1 °F 85% 30.04 in 10.0 mi ENE 16.1 mph - N/A   Overcast
8:53 AM 28.0 °F 15.3 °F 24.1 °F 85% 30.03 in 10.0 mi ENE 18.4 mph 23.0 mph N/A   Overcast
9:53 AM 28.0 °F 15.3 °F 24.1 °F 85% 30.01 in 10.0 mi ENE 18.4 mph - N/A   Overcast
10:53 AM 28.0 °F 18.1 °F 24.1 °F 85% 30.03 in 10.0 mi NE 11.5 mph - N/A   Overcast
11:53 AM 28.0 °F 19.3 °F 24.1 °F 85% 30.01 in 10.0 mi NE 9.2 mph - N/A   Overcast
12:27 PM 28.4 °F 16.6 °F 23.0 °F 80% 29.94 in 10.0 mi ENE 16.1 mph - N/A   Overcast
12:53 PM 28.0 °F 17.0 °F 24.1 °F 85% 29.95 in 10.0 mi ENE 13.8 mph - N/A   Overcast
1:15 PM 26.6 °F 15.2 °F 24.8 °F 93% 29.92 in 10.0 mi ENE 13.8 mph - N/A   Overcast
1:53 PM 27.0 °F 16.1 °F 23.0 °F 85% 29.93 in 10.0 mi ENE 12.7 mph - N/A   Overcast
2:53 PM 27.0 °F 18.0 °F 24.1 °F 89% 29.93 in 3.0 mi ENE 9.2 mph - 0.00 in Snow Light Snow
2:55 PM 26.6 °F 17.5 °F 24.8 °F 93% 29.91 in 2.5 mi ENE 9.2 mph - 0.00 in Snow Light Snow
3:09 PM 26.6 °F 16.8 °F 24.8 °F 93% 29.90 in 1.5 mi ENE 10.4 mph - 0.00 in Snow Light Snow
3:20 PM 26.6 °F 19.1 °F 24.8 °F 93% 29.91 in 2.0 mi NE 6.9 mph - 0.00 in Snow Light Snow
3:24 PM 26.6 °F 18.2 °F 24.8 °F 93% 29.91 in 1.8 mi NE 8.1 mph - 0.00 in Snow Light Snow
3:36 PM 26.6 °F 18.2 °F 24.8 °F 93% 29.92 in 2.0 mi NE 8.1 mph - 0.00 in Snow Light Snow
3:44 PM 26.6 °F 20.0 °F 24.8 °F 93% 29.93 in 1.2 mi NE 5.8 mph - 0.00 in Snow Light Snow
3:53 PM 27.0 °F 20.5 °F 25.0 °F 92% 29.95 in 1.2 mi NE 5.8 mph - 0.00 in Snow Light Snow
4:22 PM 26.6 °F 18.2 °F 24.8 °F 93% 29.93 in 0.8 mi NNE 8.1 mph - 0.00 in Snow Light Snow
4:41 PM 26.6 °F 16.8 °F 24.8 °F 93% 29.92 in 1.0 mi NE 10.4 mph - 0.00 in Snow Light Snow
4:53 PM 27.0 °F 16.7 °F 25.0 °F 92% 29.94 in 0.8 mi NE 11.5 mph - 0.00 in Snow Light Snow
5:28 PM 26.6 °F 17.5 °F 24.8 °F 93% 29.92 in 0.5 mi NE 9.2 mph - 0.00 in Fog , Snow Snow
5:46 PM 26.6 °F 18.2 °F 24.8 °F 93% 29.91 in 0.5 mi ENE 8.1 mph - 0.00 in Fog , Snow Light Snow
5:53 PM 26.1 °F 16.8 °F 25.0 °F 96% 29.93 in 0.5 mi NE 9.2 mph - 0.00 in Fog , Snow Light Snow
6:00 PM 26.6 °F 17.5 °F 24.8 °F 93% 29.90 in 1.5 mi NE 9.2 mph - 0.00 in Snow Light Snow
6:15 PM 26.6 °F 16.8 °F 24.8 °F 93% 29.89 in 2.5 mi NE 10.4 mph - 0.00 in Snow Light Snow
6:18 PM 26.6 °F 17.5 °F 24.8 °F 93% 29.89 in 3.0 mi NE 9.2 mph - 0.00 in Snow Light Snow
6:53 PM 26.1 °F 17.6 °F 24.1 °F 92% 29.92 in 5.0 mi ENE 8.1 mph - 0.00 in Snow Light Snow
7:53 PM 27.0 °F 21.6 °F 24.1 °F 89% 29.92 in 9.0 mi NE 4.6 mph - 0.00 in   Overcast
8:53 PM 28.0 °F 24.2 °F 25.0 °F 88% 29.90 in 7.0 mi ENE 3.5 mph - N/A   Overcast
9:00 PM 26.6 °F 21.2 °F 24.8 °F 93% 29.88 in 7.0 mi ENE 4.6 mph - N/A   Overcast
9:53 PM 28.0 °F - 25.0 °F 88% 29.89 in 5.0 mi Calm Calm - N/A   Overcast
10:01 PM 28.4 °F - 24.8 °F 86% 29.87 in 6.0 mi Calm Calm - N/A   Overcast
10:53 PM 28.0 °F - 26.1 °F 92% 29.89 in 6.0 mi Calm Calm - 0.00 in   Overcast
11:53 PM 28.9 °F - 26.1 °F 89% 29.88 in 8.0 mi Calm Calm - N/A   Overcast